This demonstration page uses our WeatherBlox Daily Observations layout. Learn more.

Left ArrowRight Arrow

Hourly Observations for March 16, 2017

Temp ( °F °C ) Dew Point ( °F °C ) Humidity (%) Winds ( mph kmh ) Pressure ( in mb ) Visibility ( mi km ) Precip ( " mm )
12:53 am 00:53 Clear 19 -7.2 13 -10.6 77 77 W 3 6 30.37 1029 10 16 N/A
1:53 am 01:53 Clear 21 -6.1 14 -10 74 74 WNW 3 6 30.37 1028 10 16 N/A
2:53 am 02:53 Clear 16 -8.9 12 -11.1 84 84 N N/A 30.37 1029 10 16 N/A
3:53 am 03:53 Clear 17 -8.3 13 -10.6 84 84 WSW 3 6 30.37 1028 10 16 N/A
4:53 am 04:53 Clear 20 -6.7 16 -8.9 85 85 W 5 7 30.36 1028 10 16 N/A
5:53 am 05:53 Clear 19 -7.2 15 -9.4 84 84 W 5 7 30.37 1029 10 16 N/A
6:53 am 06:53 Clear 16 -8.9 12 -11.1 84 84 N N/A 30.39 1029 10 16 N/A
7:53 am 07:53 Sunny 15 -9.4 12 -11.1 88 88 N N/A 30.40 1030 9 14 N/A
8:53 am 08:53 Sunny 23 -5 18 -7.8 81 81 WSW 6 9 30.42 1030 10 16 N/A
9:53 am 09:53 Sunny 27 -2.8 18 -7.8 69 69 VRB 5 7 30.42 1030 10 16 N/A
10:53 am 10:53 Sunny 32 undefined 19 -7.2 59 59 WSW 6 9 30.43 1031 10 16 N/A
11:53 am 11:53 Sunny 35 1.7 17 -8.3 48 48 VRB 7 11 30.43 1031 10 16 N/A
12:53 pm 12:53 Sunny 38 3.3 14 -10 37 37 W 7 11 30.43 1030 10 16 N/A
1:53 pm 13:53 Sunny 39 3.9 13 -10.6 34 34 SSW 8 13 30.40 1030 10 16 N/A
2:53 pm 14:53 Sunny 41 5 12 -11.1 30 30 SW 10 17 30.37 1029 10 16 N/A
3:53 pm 15:53 Sunny 43 6.1 14 -10 31 31 WSW 9 15 30.35 1028 10 16 N/A
4:53 pm 16:53 Sunny 43 6.1 13 -10.6 29 29 SW 8 13 30.34 1027 10 16 N/A
5:53 pm 17:53 Sunny 43 6.1 12 -11.1 28 28 W 7 11 30.33 1027 10 16 N/A
6:53 pm 18:53 Sunny 42 5.6 11 -11.7 28 28 WSW 5 7 30.33 1027 10 16 N/A
7:53 pm 19:53 Clear 39 3.9 11 -11.7 31 31 W 3 6 30.33 1027 10 16 N/A
8:53 pm 20:53 Clear 30 -1.1 16 -8.9 56 56 N N/A 30.33 1027 10 16 N/A
9:53 pm 21:53 Clear 26 -3.3 17 -8.3 69 69 N N/A 30.33 1027 10 16 N/A
10:53 pm 22:53 Clear 24 -4.4 17 -8.3 75 75 N N/A 30.33 1027 10 16 N/A
11:53 pm 23:53 Clear 23 -5 16 -8.9 74 74 N N/A 30.32 1027 10 16 N/A

Powered by AerisWeather